Burlington, WA
on Saturday, December 15, 2012

Saturday
Previous Day Next Day
Daily Summary
 ActualAverage (KBLI)Record (KBLI)
Temperature
Mean Temperature °F 38°F  
Max Temperature 42°F 44°F 62°F (1962)
Min Temperature 33°F 32°F 2°F (1964)
Degree Days
Heating Degree Days 28 27  
Month to date heating degree days 395  
Cooling Degree Days 0 0  
Month to date cooling degree days 0  
Year to date cooling degree days 42  
Moisture
Dew Point 36°F   
Average Humidity 92    
Maximum Humidity 100    
Minimum Humidity 70    
Precipitation
Precipitation 0.11 in 0.13 in 1.48 in (1963)
Month to date precipitation 2.21  
Year to date precipitation 33.82  
Wind
Wind Speed 9 mph   
Max Wind Speed 18 mph   
Max Gust Speed 26 mph   
Visibility 8 miles   
Events     

Key: T is trace of precipitation, MM is missing value
Source: NWS Daily Summary
Time(PST)TemperatureDew PointHumidity Pressure Visibility Wind DirectionWind SpeedGust SpeedPrecipitationEvents Conditions
12:15 AM 35.6°F 35.6°F 100% 29.91 in 10.0 miles ESE 3.5 mph - 0.00 in   Clear
12:35 AM 35.6°F 33.8°F 93% 29.90 in 10.0 miles East 6.9 mph - 0.00 in   Clear
12:55 AM 35.6°F 33.8°F 93% 29.90 in 10.0 miles East 6.9 mph - 0.00 in   Clear
1:15 AM 33.8°F 33.8°F 100% 29.89 in 9.0 miles ENE 4.6 mph - 0.00 in   Clear
1:35 AM 33.8°F 33.8°F 100% 29.88 in 9.0 miles ESE 3.5 mph - 0.00 in   Clear
1:55 AM 35.6°F 33.8°F 93% 29.88 in 9.0 miles East 4.6 mph - 0.00 in   Mostly Cloudy
2:15 AM 35.6°F 33.8°F 93% 29.87 in 9.0 miles Calm Calm - 0.00 in   Mostly Cloudy
2:35 AM 35.6°F 33.8°F 93% 29.87 in 9.0 miles East 6.9 mph - 0.00 in   Overcast
2:55 AM 35.6°F 33.8°F 93% 29.87 in 10.0 miles East 8.1 mph - 0.00 in   Overcast
3:15 AM 35.6°F 33.8°F 93% 29.86 in 10.0 miles East 5.8 mph - 0.00 in   Overcast
3:35 AM 35.6°F 33.8°F 93% 29.85 in 10.0 miles East 8.1 mph - 0.00 in   Overcast
3:55 AM 35.6°F 33.8°F 93% 29.83 in 10.0 miles ESE 9.2 mph - 0.00 in   Mostly Cloudy
4:15 AM 35.6°F 33.8°F 93% 29.82 in 10.0 miles East 10.4 mph - 0.00 in   Partly Cloudy
4:35 AM 37.4°F 33.8°F 87% 29.81 in 10.0 miles ESE 12.7 mph - 0.00 in   Mostly Cloudy
4:55 AM 37.4°F 33.8°F 87% 29.81 in 10.0 miles ESE 11.5 mph - 0.00 in   Mostly Cloudy
5:15 AM 39.2°F 33.8°F 81% 29.81 in 10.0 miles ESE 8.1 mph - 0.00 in   Mostly Cloudy
5:35 AM 39.2°F 33.8°F 81% 29.80 in 10.0 miles ESE 9.2 mph - 0.00 in   Mostly Cloudy
5:55 AM 39.2°F 33.8°F 81% 29.79 in 10.0 miles ESE 10.4 mph - 0.00 in   Mostly Cloudy
6:15 AM 39.2°F 33.8°F 81% 29.78 in 10.0 miles ESE 8.1 mph - 0.00 in   Mostly Cloudy
6:35 AM 39.2°F 32.0°F 75% 29.77 in 10.0 miles ESE 12.7 mph 19.6 mph 0.00 in   Overcast
6:55 AM 41.0°F 32.0°F 70% 29.76 in 10.0 miles SE 10.4 mph 16.1 mph 0.00 in   Overcast
7:15 AM 39.2°F 33.8°F 81% 29.76 in 7.0 miles SSE 13.8 mph 21.9 mph 0.00 in   Overcast
7:35 AM 39.2°F 35.6°F 87% 29.75 in 6.0 miles SE 13.8 mph 21.9 mph 0.00 in   Overcast
7:55 AM 39.2°F 35.6°F 87% 29.75 in 8.0 miles SE 11.5 mph 24.2 mph 0.01 in   Overcast
8:15 AM 37.4°F 35.6°F 93% 29.73 in 8.0 miles SE 16.1 mph 20.7 mph 0.00 in   Overcast
8:35 AM 37.4°F 35.6°F 93% 29.72 in 8.0 miles ESE 17.3 mph 23.0 mph 0.00 in   Overcast
8:55 AM 37.4°F 35.6°F 93% 29.71 in 8.0 miles ESE 16.1 mph 24.2 mph 0.00 in   Overcast
9:15 AM 37.4°F 35.6°F 93% 29.70 in 8.0 miles ESE 16.1 mph 21.9 mph 0.00 in   Overcast
9:35 AM 37.4°F 35.6°F 93% 29.70 in 5.0 miles ESE 18.4 mph 26.5 mph 0.00 in   Overcast
10:35 AM 37.4°F 37.4°F 100% 29.67 in 5.0 miles ESE 17.3 mph 21.9 mph 0.01 in   Overcast
11:15 AM 37.4°F 37.4°F 100% 29.63 in 8.0 miles ESE 18.4 mph 26.5 mph 0.00 in   Mostly Cloudy
11:55 AM 39.2°F 35.6°F 87% 29.60 in 8.0 miles ESE 16.1 mph 26.5 mph 0.00 in   Overcast
12:15 PM 39.2°F 35.6°F 87% 29.59 in 6.0 miles ESE 16.1 mph 19.6 mph 0.00 in   Overcast
12:35 PM 39.2°F 37.4°F 93% 29.56 in 8.0 miles ESE 17.3 mph 21.9 mph 0.00 in   Overcast
1:15 PM 39.2°F 35.6°F 87% 29.54 in 8.0 miles ESE 13.8 mph 19.6 mph 0.00 in   Mostly Cloudy
1:35 PM 41.0°F 35.6°F 81% 29.52 in 7.0 miles SE 8.1 mph 20.7 mph 0.00 in   Mostly Cloudy
1:55 PM 42.8°F 37.4°F 81% 29.51 in 7.0 miles SE 16.1 mph 24.2 mph 0.00 in   Overcast
2:15 PM 42.8°F 37.4°F 81% 29.52 in 7.0 miles SSE 11.5 mph 20.7 mph 0.00 in   Mostly Cloudy
2:35 PM 42.8°F 37.4°F 81% 29.52 in 7.0 miles SSE 11.5 mph 19.6 mph 0.00 in   Overcast
2:55 PM 41.0°F 37.4°F 87% 29.53 in 8.0 miles SSE 9.2 mph 20.7 mph 0.00 in   Overcast
3:15 PM 39.2°F 37.4°F 93% 29.54 in 8.0 miles South 13.8 mph 18.4 mph 0.00 in   Overcast
3:55 PM 39.2°F 39.2°F 100% 29.54 in 6.0 miles SSE 12.7 mph 21.9 mph 0.00 in   Overcast
4:15 PM 39.2°F 37.4°F 93% 29.53 in 8.0 miles SSE 10.4 mph 19.6 mph 0.00 in   Overcast
4:55 PM 39.2°F 37.4°F 93% 29.55 in 10.0 miles SSE 6.9 mph 17.3 mph 0.00 in   Overcast
5:15 PM 39.2°F 37.4°F 93% 29.55 in 9.0 miles SE 10.4 mph 19.6 mph 0.00 in   Overcast
5:55 PM 37.4°F 37.4°F 100% 29.55 in 10.0 miles SE 10.4 mph 17.3 mph 0.00 in   Overcast
6:15 PM 39.2°F 37.4°F 93% 29.55 in 10.0 miles SSE 10.4 mph 18.4 mph 0.00 in   Overcast
6:35 PM 39.2°F 37.4°F 93% 29.56 in 10.0 miles SE 11.5 mph 16.1 mph 0.00 in   Overcast
6:55 PM 37.4°F 37.4°F 100% 29.56 in 9.0 miles SSE 8.1 mph 18.4 mph 0.00 in   Overcast
7:55 PM 37.4°F 37.4°F 100% 29.57 in 4.0 miles SSE 11.5 mph - 0.03 in   Overcast
8:15 PM 37.4°F 37.4°F 100% 29.57 in 9.0 miles South 5.8 mph - 0.01 in   Overcast
8:35 PM 37.4°F 37.4°F 100% 29.58 in 5.0 miles South 9.2 mph - 0.01 in   Overcast
8:55 PM 37.4°F 37.4°F 100% 29.59 in 5.0 miles SSW 6.9 mph - 0.05 in   Overcast
9:15 PM 37.4°F 37.4°F 100% 29.59 in 7.0 miles South 8.1 mph - 0.01 in   Overcast
9:35 PM 37.4°F 37.4°F 100% 29.60 in 8.0 miles South 6.9 mph - 0.01 in   Overcast
9:55 PM 37.4°F 37.4°F 100% 29.61 in 8.0 miles South 6.9 mph - 0.01 in   Overcast
10:15 PM 37.4°F 37.4°F 100% 29.61 in 8.0 miles South 8.1 mph - 0.00 in   Overcast
10:35 PM 39.2°F 39.2°F 100% 29.62 in 8.0 miles South 6.9 mph - 0.00 in   Overcast
10:55 PM 39.2°F 39.2°F 100% 29.64 in 8.0 miles South 8.1 mph - 0.00 in   Mostly Cloudy
11:15 PM 39.2°F 39.2°F 100% 29.64 in 8.0 miles South 8.1 mph - 0.00 in   Mostly Cloudy
Moon Phase
Dec. 15 Dec. 20 Dec. 28 Jan. 04 Jan. 11
Sunrise:07:55 AM (PST) Moon Rise:09:42 AM (PST)12/15
Sunset:04:15 PM (PST) Moon Set:07:36 PM (PST)12/15

Copyright © 2014 The Weather Underground, Inc.